Location: Forli
(44.2227°N, 12.0407°E)
Time: 14:11:04
(UTC+02:00)

UWE-3 - Pass Details

Date: 27 April 2026
Orbit: 542 x 613 km, 97.9° (Epoch: 10 May)

Event Time Altitude Azimuth Distance (km) Brightness Sun altitude
Rises 04:18:28 0° 10° (N) 2,717 ? -17.8°
Reaches altitude 10° 04:20:36 10° 8° (N) 1,817 ? -17.5°
Maximum altitude 04:24:29 67° 286° (WNW) 591 ? -17.0°
Enters shadow 04:26:00 35° 214° (SW) 894 ? -16.8°
